Regional Weather Roundup
Issued by NWS Midland/Odessa, TX

Skip options and go directly to product.
Home | Oldest Version | Previous Version | Current Version | All | Graphics & Text | Save Text | Print | Product List | Glossary On

Skip product version selection by date and time.   
782
ASUS44 KMAF 010110
RWRMAF
MIDLAND AREA WEATHER ROUNDUP
NATIONAL WEATHER SERVICE MIDLAND TX
800 PM CDT THU JUL 31 2014

...IN SOUTHWEST TEXAS AND SOUTHEAST NEW MEXICO...

CITY           SKY/WX    TMP DP  RH WIND       PRES   REMARKS
ALPINE         CLEAR     77  58  52 NE10      30.22S
ANDREWS        FAIR      83  55  37 E9        30.09S
ARTESIA        PTSUNNY   77  61  57 S7        30.12S
BIG SPRING     CLEAR     84  57  39 E9        30.09R
CARLSBAD       MOSUNNY   79  60  52 SE3       30.09F
DRYDEN           N/A     95  63  34 NE7       29.98S
FORT STOCKTON  CLEAR     83  60  45 E6        30.08S
GUAD PASS      SUNNY     66  59  78 NE23      30.22R
HOBBS          CLEAR     81  54  39 E7        30.13R
MARFA          PTCLDY    75  57  53 NE13      30.20S
MIDLAND AIRPK  CLEAR     84  56  39 E7        30.07S
MIDLAND INTL   CLEAR     83  58  42 E6        30.07S
ODESSA         CLEAR     82  56  40 E8        30.09S
PECOS          PTCLDY    85  59  42 E5        30.05S
PRESIDIO       FAIR      93  58  29 E12G22    29.98R
SEMINOLE       CLEAR     83  53  35 NE5       30.11R HAZE
SNYDER         CLEAR     79  60  51 NE8       30.08R
WINK           PTCLDY    86  58  38 E9        30.05S
$$
...OTHER STATIONS IN TEXAS...

CITY           SKY/WX    TMP DP  RH WIND       PRES   REMARKS
ABILENE        CLOUDY    79  63  57 NE10      30.05S
AMARILLO       PTCLDY    75  52  44 NE10      30.16S
AUSTIN         MOCLDY    89  69  51 N15       29.90R
BROWNSVILLE    CLEAR     86  73  65 SE16G26   29.90S
CORPUS CHRISTI PTCLDY    87  74  64 SE20      29.90R
DALLAS FTW     CLOUDY    73  66  78 N16       29.99S
DEL RIO        CLOUDY    86  69  56 N7        29.89F
EL PASO        PTSUNNY   86  60  41 E10       30.05R
HOUSTON INT    CLOUDY    86  75  69 S10       29.88F
LUBBOCK        MOCLDY    79  52  38 E7        30.11F
SAN ANGELO     CLEAR     81  63  54 E13       30.03R
SAN ANTONIO    MOCLDY    91  71  51 N9        29.90S
WACO           CLEAR     79  64  60 N14       29.96F
WICHITA FALLS  NOT AVBL
$$
...OTHER LOCATIONS IN NEW MEXICO...

CITY           SKY/WX    TMP DP  RH WIND       PRES   REMARKS
ALAMAGORDO     MOSUNNY   86  59  39 S10G24    30.08S
ALBUQUERQUE    TSTM      74  51  44 NW16G26   30.21R
CANNON AFB     SUNNY     76  52  43 E7        30.17S
CLOVIS         NOT AVBL
HOLLOMAN AFB   MOSUNNY   86  54  32 S10       30.06R
ROSWELL        MOSUNNY   79  62  56 S8        30.10F
RUIDOSO        PTSUNNY   64  59  82 SE10      30.33R
SANTA FE       TSTM      59  53  80 N20G29    30.27F
TRUTH OR CONSE CLOUDY    84  57  39 SW13G21   30.11R
TUCUMCARI      PTSUNNY   79  48  33 NE9       30.17R
$$

USA.gov is the U.S. government's official web portal to all federal, state and local government web resources and services.